Flag for Norway Weather past 2 weeks in Grimstad, Norway

Now
56 °F

Cool.


Feels Like: 54 °F
Forecast: 46 / 53 °F
Wind: 8 mph from Southwest

Location: Torungen Fyr

Current Time: Sep 23, 2014 at 7:06:28 PM

Latest Report: Sep 23, 2014 at 6:00 PM


Visibility: N/A

Pressure: 29.88 "Hg

Humidity: 74%

Dew point: 48 °F

Location of GrimstadLocation

Historic Weather in Grimstad — Graph

°F

Grimstad temperature yesterday

Maximum temperature yesterday: 59 °F (at 4:00 PM)
Minimum temperature yesterday: 50 °F (at 5:00 AM)
Average temperature yesterday: 55 °F

Past Weeks' High & Low Weather Summary

 TemperatureHumidityPressure
High64 °F (Sep 21, 3:00 PM)94% (Sep 12, 4:00 AM)30.45 "Hg (Sep 12, 4:00 AM)
Low46 °F (Sep 23, 6:00 AM)35% (Sep 22, 3:00 PM)29.79 "Hg (Sep 21, 6:00 PM)
Average58 °F80%30.15 "Hg
* Reported Sep 8 5:00 PM — Sep 23 5:00 PM, Grimstad, Weather by CustomWeather, © 2014

Note: Actual official high and low records may vary slightly from our data, if they occured in-between our weather recording intervals... More about our weather records

Advertising

Grimstad weather history for previous 24 hours

 ConditionsComfort  
Time TempWeatherWind HumidityBarometerVisibility
5:00 PM
Sep 23
57 °FCool.6 mph67%29.90 "HgN/A
4:00 PM56 °FCool.8 mph64%29.92 "HgN/A
3:00 PM56 °FCool.9 mph71%29.93 "HgN/A
2:00 PM58 °FCool.7 mph68%29.93 "HgN/A
1:00 PM57 °FCool.5 mph69%29.94 "HgN/A
12:00 PM57 °FCool.5 mph61%29.95 "HgN/A
11:00 AM56 °FCool.12 mph74%29.96 "HgN/A
10:00 AM55 °FCool.12 mph69%29.98 "HgN/A
9:00 AM54 °FCool.10 mph68%29.99 "HgN/A
8:00 AM48 °FCool.2 mph81%30.01 "HgN/A
7:00 AM46 °FCool.3 mph82%30.02 "HgN/A
6:00 AM46 °FCool.2 mph82%30.02 "HgN/A
5:00 AM47 °FCool.5 mph79%30.03 "HgN/A
4:00 AM48 °FCool.3 mph77%30.04 "HgN/A
3:00 AM49 °FCool.3 mph74%30.05 "HgN/A
2:00 AM51 °FCool.5 mph73%30.06 "HgN/A
1:00 AM52 °FCool.3 mph75%30.07 "HgN/A
12:00 AM53 °FCool.5 mph69%30.07 "HgN/A
11:00 PM
Sep 22
56 °FRefreshingly cool.7 mph52%30.06 "HgN/A
10:00 PM54 °FCool.2 mph72%30.06 "HgN/A
9:00 PM55 °FCool.1 mph65%30.06 "HgN/A
8:00 PM58 °FRefreshingly cool.2 mph41%30.04 "HgN/A
7:00 PM58 °FRefreshingly cool.3 mph43%30.03 "HgN/A
Weather by CustomWeather, © 2014

See weather overviewHow to use our weather pages